Weather History for Keahole Point, HI

Change the Weather History Date:

Thursday, October 3, 2013

  Actual Average Record
Temperature  
Mean Temperature 81 °F -  
Max Temperature 84 °F 84 °F 93 °F (1982)
Min Temperature 78 °F 73 °F 70 °F (2010)
Cooling Degree Days 16    
Growing Degree Days 31 (Base 50)    
Moisture  
Dew Point 71 °F    
Average Humidity 73    
Maximum Humidity 79    
Minimum Humidity 67    
Precipitation  
Precipitation 0.00 in - - ()
Sea Level Pressure  
Sea Level Pressure 29.93 in    
Wind  
Wind Speed 6 mph (SW)    
Max Wind Speed 13 mph    
Max Gust Speed -    
Visibility 10 miles    
Events      
Averages and records for this station are not official NWS values.
T = Trace of Precipitation, MM = Missing Value Source: NWS Daily Summary

Daily Weather History Graph

Daily Weather History Graph

Search for Another Location

Airport:

Trip Planner

Search our weather history database for the weather conditions in past years. The results will help you decide how hot, cold, wet, or windy it might be!

Date:

Astronomy

Oct. 03, 2013 Rise Set
Actual Time 6:15 AM HST 6:10 PM HST
Civil Twilight 5:53 AM HST 6:32 PM HST
Nautical Twilight 5:28 AM HST 6:57 PM HST
Astronomical Twilight 5:02 AM HST 7:23 PM HST
Moon 5:06 AM HST (10/3) 5:23 PM HST (10/3)
Length of Visible Light 12h 38m
Length of Day
11h 54m
Waning Crescent, 1% of the Moon is Illuminated
Oct 3
Waning Crescent
Oct 4
New
Oct 11
First Quarter
Oct 18
Full
Oct 26
Last Quarter

Hourly Weather History & Observations

Time (HST) Temp. Heat Index Dew Point Humidity Pressure Visibility Wind Dir Wind Speed Gust Speed Precip Events Conditions
12:53 AM 80.1 °F 83.8 °F 72.0 °F 76% 29.93 in 10.0 mi South 5.8 mph - N/A   Mostly Cloudy
1:53 AM 80.1 °F 83.6 °F 71.1 °F 74% 29.91 in 10.0 mi SSW 9.2 mph - N/A   Scattered Clouds
2:53 AM 80.1 °F 83.2 °F 70.0 °F 71% 29.91 in 10.0 mi SSW 8.1 mph - N/A   Overcast
3:53 AM 80.1 °F 83.6 °F 71.1 °F 74% 29.91 in 10.0 mi SW 10.4 mph - N/A   Overcast
4:53 AM 79.0 °F - 72.0 °F 79% 29.91 in 10.0 mi WSW 6.9 mph - N/A   Scattered Clouds
5:16 AM 80.6 °F 84.6 °F 71.6 °F 74% 29.91 in 10.0 mi West 6.9 mph - N/A   Mostly Cloudy
5:34 AM 78.8 °F - 71.6 °F 78% 29.91 in 10.0 mi West 5.8 mph - N/A   Mostly Cloudy
5:53 AM 79.0 °F - 71.1 °F 77% 29.91 in 10.0 mi West 3.5 mph - N/A   Mostly Cloudy
6:53 AM 79.0 °F - 71.1 °F 77% 29.93 in 10.0 mi Calm Calm - N/A   Mostly Cloudy
7:53 AM 80.1 °F 83.6 °F 71.1 °F 74% 29.95 in 10.0 mi Calm Calm - N/A   Scattered Clouds
8:53 AM 81.0 °F 84.9 °F 71.1 °F 72% 29.96 in 10.0 mi Calm Calm - N/A   Clear
9:53 AM 82.9 °F 87.5 °F 71.1 °F 67% 29.96 in 10.0 mi WSW 6.9 mph - N/A   Clear
10:53 AM 82.0 °F 86.3 °F 71.1 °F 69% 29.95 in 10.0 mi WSW 9.2 mph - N/A   Clear
11:53 AM 82.0 °F 86.7 °F 72.0 °F 71% 29.94 in 10.0 mi WSW 6.9 mph - N/A   Clear
12:53 PM 82.9 °F 88.0 °F 72.0 °F 69% 29.92 in 10.0 mi SW 8.1 mph - N/A   Partly Cloudy
1:53 PM 82.9 °F 88.0 °F 72.0 °F 69% 29.90 in 10.0 mi SW 9.2 mph - N/A   Overcast
2:53 PM 82.9 °F 88.0 °F 72.0 °F 69% 29.88 in 10.0 mi SSW 9.2 mph - N/A   Partly Cloudy
3:53 PM 84.0 °F 89.6 °F 72.0 °F 67% 29.88 in 10.0 mi SSW 12.7 mph - N/A   Mostly Cloudy
4:53 PM 82.0 °F 86.7 °F 72.0 °F 71% 29.89 in 10.0 mi South 9.2 mph - N/A   Clear
6:53 PM 81.0 °F 84.9 °F 71.1 °F 72% 29.92 in 10.0 mi Variable 3.5 mph - N/A   Overcast
7:53 PM 81.0 °F 84.9 °F 71.1 °F 72% 29.94 in 10.0 mi South 5.8 mph - N/A   Overcast
8:53 PM 81.0 °F 84.9 °F 71.1 °F 72% 29.96 in 10.0 mi South 6.9 mph - N/A   Overcast
9:53 PM 80.1 °F 83.8 °F 72.0 °F 76% 29.96 in 10.0 mi SSW 4.6 mph - N/A   Overcast
10:53 PM 80.1 °F 83.8 °F 72.0 °F 76% 29.96 in 10.0 mi Calm Calm - N/A   Scattered Clouds
11:53 PM 80.1 °F 83.8 °F 72.0 °F 76% 29.95 in 10.0 mi NW 3.5 mph - N/A   Overcast